Regional Weather Roundup
Issued by NWS

Home | Current Version | Previous Version | Text Only | Print | Product List | Glossary On
Versions: 1 2 3 4 5 6 7 8 9 10 11 12 13 14 15 16 17 18 19 20 21 22 23 24 25 26 27 28 29 30 31 32 33 34 35 36 37 38 39 40 41 42 43 44 45 46 47 48 49 50
000
ASUS42 KFFC 150110
RWRGA
WEATHER ROUNDUP FOR GEORGIA
NATIONAL WEATHER SERVICE PEACHTREE CITY GA
800 PM EST THU DEC 14 2017

NOTE: "FAIR" INDICATES FEW OR NO CLOUDS BELOW 12,000 FEET WITH NO
SIGNIFICANT WEATHER AND/OR OBSTRUCTIONS TO VISIBILITY.

* = USE WITH CAUTION. THE STATIONS MARKED WITH AN ASTERISK MAY NOT
REPORT WEATHER SUCH AS PRECIPITATION, FOG, OR THUNDER AND ARE NOT
QUALITY CONTROLLED BY NWS.

THE REMARK "TC" DENOTES TEMPERATURE READING IN DEGREES CELSIUS.

GAZ001>058-150200-
NORTH GEORGIA

CITY           SKY/WX    TMP DP  RH WIND       PRES   REMARKS
ATLANTA        CLOUDY    49  37  63 SW7       29.97R
ATHENS         CLOUDY    45  33  63 NW3       29.96R
CHAMBLEE       CLOUDY    43  33  68 SW7       29.96R
PEACHTREE CITY CLOUDY    41  36  82 CALM      29.98R
ROME           CLOUDY    48  31  51 NW6       29.97R
WEST ATLANTA   CLOUDY    49  37  63 SW5       29.97R
GAINESVILLE    CLEAR     45  30  55 SW5       29.96R
CARTERSVILLE   CLOUDY    40  34  79 CALM      29.98R


CITY           SKY/WX    TMP DP  RH WIND       PRES   REMARKS
DALTON*        CLEAR     37  32  81 CALM      29.99R
LAWRENCEVILLE* CLOUDY    42  33  70 CALM      29.96R
MARIETTA       CLOUDY    42  33  68 SW3       29.96R
KENNESAW*      CLOUDY    43  33  68 CALM      29.97R
CANTON*        CLOUDY    45  34  65 CALM      29.97R
$$

GAZ059>098-102>109-150200-
CENTRAL GEORGIA

CITY           SKY/WX    TMP DP  RH WIND       PRES   REMARKS
AUGUSTA-BUSH   CLOUDY    43  37  79 CALM      29.96R
AUGUSTA-DANIEL CLOUDY    51  36  56 SW3       29.97R
COLUMBUS       CLOUDY    50  39  66 CALM      30.00R
MACON          CLOUDY    48  39  71 W5        29.99R
ROBINS AFB     MOCLDY    47  39  74 CALM      29.98R


CITY           SKY/WX    TMP DP  RH WIND       PRES   REMARKS
LAGRANGE*      CLOUDY    42  40  93 CALM      29.99R
SYLVANIA*      CLOUDY    47  44  88 CALM      30.01R
MILLEDGEVILLE* CLOUDY    46  39  76 SW3       29.98R
$$

GAZ099>101-110>166-150200-
SOUTH GEORGIA

CITY           SKY/WX    TMP DP  RH WIND       PRES   REMARKS
SAVANNAH       CLOUDY    53  38  56 CALM      30.01R
VALDOSTA       PTCLDY    54  35  48 SW5       30.02R
ALMA           CLOUDY    44  41  89 CALM      30.00S
ST SIMONS      MOCLDY    55  40  56 W3        30.02R
FT STEWART     PTCLDY    48  41  76 CALM      29.99R
ALBANY         CLEAR     48  39  71 CALM      30.03R
HUNTER AFB     PTCLDY    52  39  62 SW2       29.98R
MOODY AFB      PTCLDY    49  39  69 S5        30.01R
BRUNSWICK      MOCLDY    50  39  66 CALM      30.03R


CITY           SKY/WX    TMP DP  RH WIND       PRES   REMARKS
BAINBRIDGE*    PTCLDY    52  45  76 CALM      30.01R
MOULTRIE*      CLEAR     50  41  71 CALM      30.01S
VIDALIA*       CLOUDY    50  41  71 CALM      30.00R
WAYCROSS*      CLOUDY    46  37  71 CALM      30.01S
DOUGLAS*       CLOUDY    46  37  71 CALM      30.02S
$$




USA.gov is the U.S. government's official web portal to all federal, state and local government web resources and services.